DELTA 1 DEB, 21282

Orbit data source: Space-Track

DELTA 1 DEB, 21282 is space debris in SSO originally from a launch on Thu, 12 Jun 1975 UTC launched from the Air Force Western Test Range (AFWTR). Debris objects in space refer to the collection of defunct objects orbiting the Earth. Examples of debris include non-operational satellites, rocket bodies, and fragments generated from explosions, collisions, or faulty payload assembly.

Loading next visibility...
Identifier
21282, 1975-052T
Orbit
SSO
Country
Flag of USUS
Related business
Manufacturer
Unknown
Mission
Spacecraft
Bus & Motor
Unknown
Mass
Unknown
Launch date (UTC)
1975-06-12 (51 years ago)
Launch vehicle
Unknown
Launch site
Air Force Western Test Range (AFWTR)
Object type
Payload
Rocket body
Debris
Shape & HBR
Unknown shape, 0.1 m
Radar Cross Section
Small (<0.1 m²)

Expand to show TLE details & history
Last TLE update: 14 hours ago

TLE from 14 hours ago
0 DELTA 1 DEB
1 21282U 75052T   25351.08071942  .00000019  00000-0  13524-3 0  9999
2 21282  99.8071 290.3138 0100270 357.4143  68.6645 13.24835599673756
Epoch: 2025-12-17T01:56Z
TLE epoch observation values (Epoch: 2025-12-17T01:56:14.157Z)
Latitude
65.32727°
Longitude
153.31351°
Altitude
1,150.63 km
Speed
7.297 km/s
True Right ascension
17h 53m 18s
True Declination
65° 12' 12"
Sunlit
Object was in daylight at epoch
Visualization orbit readout
Latitude
Unknown
Longitude
Unknown
Altitude
Unknown
Speed
Unknown
Apparent Right ascension
Unknown
Apparent Declination
Unknown
Sunlit
N/A
Visualization observer readout
Local Sidereal Time
14:52:39
Azimuth
Unknown
Elevation
Unknown
Doppler factor
Unknown
Orbital elements
Apogee altitude
1,239.268 km
Perigee altitude
1,088.025 km
Semi-major axis
7,541.783 km
Eccentricity
0.01003
Inclination
99.8071°
RAAN
290.3138°
Arg. of periapsis
357.4143°
True anomaly
69.7396°
Mean anomaly
68.6645°
Eccentric anomaly
69.20157°
Mean motion
3.31384 °/min
Orbital period
108.64 mins
BSTAR
0.00013524
Loading maneuver chart data...
Computing Atmospheric mass density...

Documentation

Showing up to 5 results
|